MET'MAP v2.0
soon released !

Expected late october,
this new version will be
more efficient, smarter,
and hosted on a brand new
server x3 powerfull...
...and still free !


Not compatible ?
Try the mobile version !

LOG IN : | Subscribe | Disclaimer | Who is Orbifly ? |
ICAO code :

TAF - LFQG Nevers - 23 Oct 2019 14:30 UTC
Data Sources :     NOAA   


- Airport Elevation : 602 ft
- IATA code : NVS
- No reported NOTAMs.


LFQG - Nevers

Latest METAR recorded : 2019/10/23 12:00 LFQG 231200Z AUTO 12004KT 090V150 CAVOK 16/13 Q1011
NO TAF


MET'MAP, your aeronautical weather chart ! - Copyright ORBIFLY December 2007

Programming & Development : Alexandra Zaïnal
Co-Developer : Marc-Olivier Méhu
Technical & hardware support : Manuel Goepfert
Concept & Financing : Baudouin d'Aumeries